Estación municipal de St. Sadurní d'Osormort (Osona, E.N. Guilleries-Savassona)

Consulta los datos en tiempo real de la estación municipal de St. Sadurní d'Osormort





Hora UTC 02:50
Temperatura 16.9 ºC
Humedad 92.4 %
Presión 1022.2 hPa
Pluja 0.0 mm
Velocidad viento 0.0 km/h
Dirección viento NNE

Datos diarios 2026-09-01



Hora UTC (invierno +1h; verano +2h)
Temperatura (ºC) Humedad (%) Presión (hPa) Velocidad viento (km/h) Precipitación (mm)
Hora UTC Aire Humedad Presión Vel. Dir. Vel. Max Dir. Intent. máx 5 min.
00:05 17.3 89.7 1022.6 0.0 NNE 0.0 NW 0.0
00:10 17.1 89.8 1022.6 0.0 NNE 0.0 NW 0.0
00:15 16.9 89.9 1022.6 0.0 NNE 0.0 NW 0.0
00:20 16.8 90.0 1022.6 0.0 NNE 0.0 NW 0.0
00:25 16.7 90.2 1022.6 0.0 NNE 0.0 NW 0.0
00:30 16.7 90.5 1022.6 0.0 NNE 0.0 NW 0.0
00:35 16.6 90.6 1022.5 0.0 NNE 0.0 NW 0.0
00:40 16.6 90.9 1022.5 0.0 NNE 0.0 NW 0.0
00:45 16.6 91.0 1022.5 0.0 NNE 0.0 NW 0.0
00:50 16.6 91.2 1022.5 0.0 NNE 0.0 NW 0.0
00:55 16.5 91.2 1022.5 0.0 NNE 0.0 NW 0.0
01:00 16.5 91.4 1022.5 0.0 NNE 0.0 NW 0.0
01:05 16.5 91.4 1022.5 0.0 NNE 0.0 NW 0.0
01:10 16.5 91.5 1022.5 0.0 NNE 0.0 NW 0.0
01:15 16.4 91.5 1022.5 0.0 NNE 0.0 NW 0.0
01:20 16.4 91.6 1022.5 0.0 NNE 0.0 NW 0.0
01:25 16.4 91.7 1022.5 0.0 NNE 0.0 NW 0.0
01:30 16.4 91.8 1022.5 0.0 NNE 0.0 NW 0.0
01:35 16.4 91.8 1022.5 0.0 NNE 0.0 NW 0.0
01:40 16.4 91.8 1022.5 0.0 NNE 0.0 NW 0.0
01:45 16.3 91.8 1022.5 0.0 NNE 0.0 NW 0.0
01:50 16.3 92.0 1022.5 0.0 NNE 0.0 NW 0.0
01:55 16.3 91.9 1022.4 0.0 NNE 0.0 NW 0.0
02:00 16.3 92.0 1022.4 0.0 NNE 0.0 NW 0.0
02:05 16.3 92.2 1022.4 0.0 NNE 0.0 NW 0.0
02:10 16.3 92.2 1022.4 0.0 NNE 0.0 NW 0.0
02:15 16.4 92.3 1022.4 0.0 NNE 0.0 NW 0.0
02:20 16.4 92.4 1022.4 0.0 NNE 0.0 NW 0.0
02:25 16.6 92.5 1022.4 0.0 NNE 0.0 NW 0.0
02:30 16.6 92.4 1022.4 0.0 NNE 0.0 NW 0.0
02:35 16.7 92.4 1022.3 0.1 NW 3.4 NW 0.0
02:40 16.7 92.4 1022.3 0.0 NNE 0.0 NW 0.0
02:45 16.8 92.3 1022.2 0.0 NNE 0.0 NW 0.0
02:50 16.9 92.4 1022.2 0.0 NNE 0.0 NW 0.0
Máxima 17.3 92.5 1022.6 0.1 NW 3.4 NW 0.0
Mínima 16.3 89.7 1022.2
Total 0.0